Location: Newark
(33.4453°N, 112.0669°W)
Time: 10:19:43
(UTC+00:00)

Envisat - Visible Passes

Search period start: 28 January 2020 00:00
Search period end: 07 February 2020 00:00
Orbit: 764 x 766 km, 98.1° (Epoch: 28 January)

Date Brightness Start Highest point End Pass type
(mag) Time Alt. Az. Time Alt. Az. Time Alt. Az.
28 Jan 5.2 02:13:31 10° SSW 02:17:49 28° W 02:22:10 10° NW visible
28 Jan 6.3 12:49:18 10° ENE 12:51:24 12° E 12:53:31 10° ESE visible
29 Jan 3.4 01:35:55 10° S 01:40:57 69° WSW 01:46:02 10° NNW visible
29 Jan 3.8 13:49:00 10° NNE 13:54:00 58° E 13:58:59 10° S visible
30 Jan 6.1 02:40:37 10° SW 02:43:29 15° W 02:46:21 10° WNW visible
30 Jan 5.6 13:13:02 10° NE 13:17:06 24° E 13:21:08 10° SSE visible
31 Jan 4.7 02:01:50 10° SSW 02:06:29 36° W 02:11:09 10° NNW visible
01 Feb 3.1 01:24:35 10° SSE 01:29:40 89° W 01:34:46 10° NNW visible
01 Feb 4.4 13:37:50 10° NNE 13:42:42 44° E 13:47:30 10° S visible
02 Feb 5.8 02:28:29 10° SW 02:32:06 20° W 02:35:45 10° NW visible
02 Feb 6.0 13:02:15 10° NE 13:05:44 18° E 13:09:11 10° SE visible
03 Feb 4.2 01:50:17 10° S 01:55:09 47° W 02:00:03 10° NNW visible
04 Feb 4.9 13:26:46 10° NNE 13:31:21 34° E 13:35:55 10° SSE visible
05 Feb 5.4 02:16:35 10° SSW 02:20:45 25° W 02:24:56 10° NW visible
05 Feb 6.3 12:51:45 10° ENE 12:54:20 14° E 12:56:56 10° ESE visible
06 Feb 3.6 01:38:50 10° S 01:43:50 62° W 01:48:53 10° NNW visible
06 Feb 3.6 13:51:51 10° NNE 13:56:54 64° E 14:01:55 10° S visible
